Regional Weather Roundup
Issued by NWS

Home | Current Version | Previous Version | Text Only | Print | Product List | Glossary On
Versions: 1 2 3 4 5 6 7 8 9 10 11 12 13 14 15 16 17 18 19 20 21 22 23 24 25 26 27 28 29 30 31 32 33 34 35 36 37 38 39 40 41 42 43 44 45 46 47 48 49 50
000
ASUS43 KLMK 190502
RWRKY
KENTUCKY REGIONAL WEATHER ROUNDUP
NATIONAL WEATHER SERVICE LOUISVILLE KY
100 AM EDT SAT APR 19 2014

NOTE "FAIR" INDICATES FEW OR NO CLOUDS BELOW 12,000 FEET
WITH NO SIGNIFICANT WEATHER AND/OR OBSTRUCTIONS TO VISIBILITY.

KYZ001>023-026-027-061>063-070>075-190600-
WESTERN AND SOUTH CENTRAL KENTUCKY

CITY           SKY/WX    TMP DP  RH WIND       PRES   REMARKS
PADUCAH        MOCLDY    55  45  68 CALM      30.21R
HENDERSON      MOCLDY    52  45  76 CALM      30.22R
OWENSBORO      MOCLDY    58  42  55 N3        30.21S
HOPKINSVILLE   CLOUDY    57  43  58 N3        30.19F
BOWLING GREEN  MOCLDY    52  46  80 CALM      30.20S
GLASGOW        NOT AVBL
$$

KYZ024-025-028>034-038-045-046-053-190600-
NORTH CENTRAL KENTUCKY

CITY           SKY/WX    TMP DP  RH WIND       PRES   REMARKS
LOUISVILLE/SDF CLOUDY    57  42  57 CALM      30.21S
LOUISVILLE/LOU PTCLDY    57  43  59 CALM      30.22S
FORT KNOX      MOCLDY    51  39  64 N2        30.20S
$$

KYZ035>037-039>044-047>052-055>060-089>105-190600-
NORTHEAST KENTUCKY

CITY           SKY/WX    TMP DP  RH WIND       PRES   REMARKS
LEXINGTON      MOCLDY    52  41  66 NE5       30.22S
COVINGTON      MOCLDY    56  39  53 N8        30.24S
FRANKFORT      MOCLDY    47  41  80 CALM      30.21S
$$

KYZ054-064>069-076>088-106>120-190600-
SOUTHEAST KENTUCKY

CITY           SKY/WX    TMP DP  RH WIND       PRES   REMARKS
JACKSON        CLOUDY    59  33  37 NE6       30.21S
LONDON         CLOUDY    57  41  55 CALM      30.20S
SOMERSET       NOT AVBL
MIDDLESBORO    NOT AVBL
MONTICELLO     CLOUDY    50  46  85 CALM      30.21F
$$




USA.gov is the U.S. government's official web portal to all federal, state and local government web resources and services.